GW5235 Weather Reports


time (UTC)temp
C
wind
direction
speed
KPH
gust
KPH
rain 1hr
cm
rain 24hr
cm
rain mn
cm
humidity
%
barometer
mb
20260506034542 14 0.0 0.0 0.00 0.08 0.08 87 1018.3
20260506033523 15 0.0 0.0 0.00 0.08 0.08 85 1018.1
20260506032525 15 0.0 0.0 0.00 0.08 0.08 84 1017.8
20260506031525 15 0.0 0.0 0.00 0.08 0.08 84 1017.8
20260506030548 15 0.0 0.0 0.00 0.08 0.08 82 1017.7
20260506025610 16 0.0 0.0 0.00 0.08 0.08 81 1017.6
20260506024527 16 0.0 0.0 0.00 0.08 0.08 80 1017.6
20260506023524 16 0.0 0.0 0.00 0.08 0.08 80 1017.5
20260506022519 16 0.0 0.0 0.00 0.08 0.08 79 1017.3
20260506021532 17 0.0 0.0 0.00 0.08 0.08 78 1017.3
20260506020533 17 0.0 0.0 0.00 0.08 0.08 78 1017.3
20260506015532 17 340 1.6 6.4 0.00 0.08 0.08 77 1017.3
20260506014531 17 343 1.6 6.4 0.00 0.08 0.08 76 1017.3
20260506013553 17 335 3.2 6.4 0.00 0.08 0.08 75 1017.3
20260506012533 17 297 3.2 4.8 0.00 0.08 0.08 75 1017.3
20260506011516 18 315 0.0 1.6 0.00 0.08 0.08 74 1017.3
20260506010536 18 6 1.6 4.8 0.00 0.08 0.08 73 1017.4
20260506005517 18 338 0.0 1.6 0.00 0.08 0.08 74 1017.5
20260506004517 18 350 4.8 6.4 0.00 0.08 0.08 73 1017.6
20260506003525 18 352 1.6 8.0 0.00 0.08 0.08 73 1017.5
20260506002522 18 356 3.2 6.4 0.00 0.08 0.08 73 1017.3
20260506001517 18 330 1.6 6.4 0.00 0.08 0.08 74 1017.3
20260506000532 18 325 4.8 8.0 0.00 0.08 0.08 73 1017.3
20260505235526 19 316 3.2 8.0 0.00 0.08 0.08 72 1017.2
20260505234527 18 307 3.2 6.4 0.00 0.08 0.08 74 1017.1
20260505233529 18 325 3.2 4.8 0.00 0.08 0.08 74 1017.1
20260505232525 18 354 6.4 16.1 0.00 0.08 0.08 73 1017.1
20260505231527 18 317 3.2 6.4 0.00 0.08 0.08 74 1017.3
20260505230516 18 341 4.8 8.0 0.00 0.08 0.08 76 1017.3
20260505225537 18 349 1.6 6.4 0.00 0.08 0.08 75 1017.3
20260505224518 18 0 3.2 8.0 0.00 0.08 0.08 74 1017.3
20260505223518 18 318 1.6 6.4 0.00 0.08 0.08 73 1017.5
20260505222546 18 318 3.2 8.0 0.00 0.10 0.08 75 1017.5
20260505221542 17 330 4.8 6.4 0.00 0.10 0.08 76 1017.6
20260505220518 18 350 3.2 6.4 0.00 0.10 0.08 76 1017.6
20260505215521 17 292 1.6 6.4 0.00 0.10 0.08 77 1017.7
20260505214517 17 227 1.6 4.8 0.00 0.10 0.08 77 1017.8
20260505213520 18 342 4.8 8.0 0.00 0.10 0.08 74 1017.8
20260505212539 18 355 4.8 9.7 0.00 0.10 0.08 75 1017.8
20260505211540 18 338 1.6 4.8 0.00 0.10 0.08 74 1017.6
20260505210526 17 288 1.6 6.4 0.00 0.10 0.08 76 1017.7
20260505205522 17 325 4.8 8.0 0.00 0.10 0.08 77 1017.8
20260505204518 17 314 3.2 6.4 0.00 0.10 0.08 78 1018.1
20260505203527 17 281 3.2 9.7 0.00 0.10 0.08 78 1018.1
20260505202528 17 330 4.8 11.3 0.00 0.10 0.08 77 1018.0
20260505201525 17 323 3.2 6.4 0.00 0.10 0.08 78 1018.0
20260505200542 17 5 4.8 8.0 0.00 0.10 0.08 79 1018.1
20260505195521 16 345 3.2 8.0 0.00 0.10 0.08 80 1018.1
20260505194521 16 305 3.2 8.0 0.00 0.10 0.08 80 1018.1
20260505193538 17 325 6.4 9.7 0.00 0.10 0.08 77 1018.3
20260505192518 17 336 3.2 6.4 0.00 0.10 0.08 76 1018.1
20260505191541 16 355 3.2 8.0 0.00 0.13 0.08 77 1018.1
20260505190522 17 302 4.8 6.4 0.00 0.15 0.08 77 1018.1
20260505185528 16 296 1.6 4.8 0.00 0.18 0.08 78 1018.1
20260505184524 16 240 1.6 4.8 0.00 0.20 0.08 79 1018.0
20260505183520 16 261 1.6 6.4 0.00 0.20 0.08 80 1017.8
20260505182527 16 293 0.0 4.8 0.00 0.20 0.08 79 1017.8
20260505181528 16 290 1.6 4.8 0.00 0.20 0.08 78 1017.8
20260505180529 16 264 1.6 4.8 0.00 0.23 0.08 80 1017.8
20260505175526 15 0.0 0.0 0.00 0.23 0.08 80 1017.8
20260505174546 16 303 3.2 9.7 0.00 0.23 0.08 79 1017.8
20260505173528 15 265 1.6 6.4 0.00 0.23 0.08 80 1017.6
20260505172528 16 284 1.6 8.0 0.00 0.23 0.08 79 1017.6
20260505171530 15 248 0.0 4.8 0.00 0.23 0.08 81 1017.6
20260505170529 15 0.0 0.0 0.00 0.23 0.08 84 1017.6
20260505165530 15 278 1.6 6.4 0.00 0.23 0.08 85 1017.6
20260505164545 14 225 0.0 3.2 0.00 0.23 0.08 86 1017.6
20260505163521 13 0.0 0.0 0.00 0.23 0.08 89 1017.6
20260505162522 13 0.0 0.0 0.00 0.23 0.08 89 1017.6
20260505161543 13 348 3.2 8.0 0.00 0.23 0.08 90 1017.5
20260505160524 13 313 1.6 6.4 0.00 0.23 0.08 91 1017.4
20260505152527 13 0.0 4.8 0.00 0.23 0.08 94 1017.1
20260505151549 12 316 3.2 6.4 0.00 0.23 0.08 94 1017.1
20260505150529 12 340 3.2 6.4 0.00 0.23 0.08 95 1017.0
20260505140526 11 0.0 4.8 0.00 0.23 0.08 99 1016.7
20260505124517 11 0.0 0.0 0.00 0.23 0.08 99 1016.3
20260505123524 11 0.0 0.0 0.00 0.23 0.08 99 1016.3
20260505122520 11 0.0 0.0 0.00 0.23 0.08 99 1016.4
20260505121528 11 315 0.0 3.2 0.00 0.23 0.08 99 1016.4
20260505120528 11 0.0 1.6 0.00 0.23 0.08 99 1016.5
20260505115518 11 34 1.6 4.8 0.00 0.23 0.08 99 1016.6
20260505114533 11 0.0 3.2 0.00 0.23 0.08 99 1016.6
20260505113528 11 0.0 0.0 0.00 0.23 0.08 99 1016.6
20260505112529 11 58 1.6 4.8 0.00 0.23 0.08 99 1016.6
20260505111526 11 0.0 3.2 0.00 0.23 0.08 99 1016.6
20260505110527 11 0 0.0 3.2 0.00 0.23 0.08 99 1016.7
20260505101519 11 338 0.0 3.2 0.00 0.23 0.08 98 1016.6
20260505100519 11 0.0 0.0 0.00 0.23 0.08 98 1016.7
20260505095533 11 338 0.0 4.8 0.00 0.23 0.08 98 1016.8
20260505094528 11 0.0 4.8 0.00 0.23 0.08 98 1016.8
20260505093530 11 343 3.2 6.4 0.03 0.23 0.08 97 1017.0
20260505092531 11 337 3.2 8.0 0.03 0.23 0.08 97 1017.1
20260505091552 11 338 0.0 4.8 0.03 0.23 0.08 97 1017.1
20260505090533 11 0.0 0.0 0.03 0.23 0.08 96 1017.1
20260505085533 11 0.0 0.0 0.05 0.23 0.08 96 1017.1
20260505084516 11 340 1.6 4.8 0.05 0.23 0.08 96 1017.1
20260505083516 11 331 1.6 4.8 0.05 0.20 0.05 95 1017.1
20260505082524 11 45 0.0 4.8 0.05 0.20 0.05 95 1017.3
20260505081521 11 340 3.2 8.0 0.05 0.20 0.05 95 1017.3
20260505080516 11 12 3.2 6.4 0.05 0.20 0.05 94 1017.3
20260505075518 12 321 3.2 6.4 0.03 0.18 0.03 94 1017.3
20260505074519 12 336 4.8 8.0 0.03 0.18 0.03 92 1017.3
20260505073520 12 316 6.4 8.0 0.00 0.15 0.00 90 1017.3
20260505072521 12 355 4.8 9.7 0.00 0.15 0.00 88 1017.1
20260505071524 13 23 0.0 3.2 0.00 0.15 0.00 88 1017.1
20260505070523 13 3 1.6 4.8 0.00 0.15 0.00 88 1017.1
20260505065525 13 330 1.6 4.8 0.00 0.15 0.15 88 1017.1
20260505064525 13 342 3.2 8.0 0.00 0.15 0.15 88 1017.1
20260505063525 13 335 1.6 6.4 0.00 0.15 0.15 87 1017.0
20260505062527 13 331 3.2 4.8 0.00 0.15 0.15 87 1017.0
20260505061544 13 326 1.6 4.8 0.00 0.15 0.15 86 1017.1
20260505060518 13 317 3.2 4.8 0.00 0.15 0.15 85 1017.1
20260505055532 13 15 1.6 6.4 0.00 0.15 0.15 85 1017.1
20260505054554 13 315 3.2 4.8 0.00 0.15 0.15 85 1017.1
20260505053517 13 299 1.6 6.4 0.00 0.15 0.15 85 1017.1
20260505052518 13 36 1.6 6.4 0.00 0.15 0.15 85 1017.1
20260505051518 14 286 1.6 8.0 0.00 0.15 0.15 86 1017.1
20260505050519 14 318 1.6 8.0 0.00 0.15 0.15 89 1017.0
20260505041525 13 0.0 0.0 0.00 0.15 0.15 93 1016.6
20260505040520 13 0.0 0.0 0.00 0.15 0.15 92 1016.4